Content
SEND FEEDBACK

Daily
Averages
Monthly
Summary
Canada

RICHMOND NATURE PARK, BRITISH COLUMBIA


Home > North America > Canada > British Columbia
Elevation: 10 feet     Latitude: 49 10N     Longitude: 123 05W

WEATHER
 
SELECT A DAY
Number of Records: 196,930;   Date Range: 1/1/95 - 9/30/14
 
SHARE

PRINT THIS DATA

[ ← Previous Day ]
WEATHER ALMANAC - FEBRUARY 10, 2013
[ Next Day → ]
[ °C ]   °F
Weather ElementAverageHighLow
Temperature37.9 °F44.6 °F (12:00 pm)30.2 °F (4:41 am)
Dewpoint24 °F37.4 °F (11:00 pm) (7:00 pm)
Humidity79.6 %93 % (5:00 am)61 % (12:00 pm)
Wind Speed2.8 mph6.9 mph (7:00 am)
Weather ElementAverage
Visibility13.1 mi
Wind DirectionESE (109.4 °)

Weather ElementTotal
Precipitation---
Heating Degree Days27.6 (Base 65)
Averaged from 37 records on February 10, 2013
WEATHER CONDITIONS BREAKOUT
WIND DIRECTION BREAKOUT
WEATHER BY HOUR - FEBRUARY 10, 2013
[ °C ]   °F
Local TimeTemperatureDewpointHumidityBarometerVisibilityWind DirectionWind SpeedGust SpeedPrecipitationEventsConditions
1:00 AM37.4 °F32.0 °F81 %30.38 in15.0 miEast (90°)4.6 mphPartly Cloudy
2:00 AM35.6 °F32.0 °F87 %30.38 in15.0 miEast (90°)4.6 mphFogShallow Fog
3:00 AM32.0 °F28.4 °F87 %30.38 in15.0 miEast (100°)5.8 mphPartly Cloudy
4:00 AM33.0 °F30.0 °F86 %30.38 in15.0 miCalmClear
4:00 AM33.8 °F30.2 °F87 %30.38 in15.0 miCalmFogShallow Fog
4:41 AM30.2 °F0.0 °F3.0 miCalmFogPartly Cloudy
4:48 AM30.2 °F0.0 °F2.5 miCalmFogPartly Cloudy
4:53 AM30.2 °F0.0 °F1.5 miCalmScattered Clouds
5:00 AM30.2 °F28.4 °F93 %30.38 in1.5 miCalmScattered Clouds
5:08 AM30.2 °F0.0 °F3.0 miESE (110°)3.5 mphMostly Cloudy
5:14 AM32.0 °F0.0 °F8.0 miESE (120°)4.6 mphFogShallow Fog
6:00 AM33.8 °F30.2 °F87 %30.38 in15.0 miESE (120°)4.6 mphMostly Cloudy
7:00 AM33.8 °F30.2 °F87 %30.38 in20.0 miESE (110°)6.9 mphMostly Cloudy
8:00 AM33.8 °F30.2 °F87 %30.39 in20.0 miEast (100°)6.9 mphMostly Cloudy
9:00 AM35.6 °F32.0 °F87 %30.39 in20.0 miEast (100°)5.8 mphMostly Cloudy
10:00 AM38.0 °F31.0 °F69 %30.40 in19.0 miEast (100°)4.6 mphMostly Cloudy
10:00 AM39.2 °F32.0 °F75 %30.40 in20.0 miEast (100°)4.6 mphMostly Cloudy
11:00 AM41.0 °F32.0 °F70 %30.40 in20.0 miESE (120°)5.8 mphMostly Cloudy
12:00 PM44.6 °F32.0 °F61 %30.38 in20.0 miCalmMostly Cloudy
1:00 PM44.6 °F35.6 °F71 %30.37 in20.0 miWSW (240°)5.8 mphMostly Cloudy
2:00 PM44.6 °F33.8 °F66 %30.36 in20.0 miWSW (250°)6.9 mphScattered Clouds
3:00 PM42.8 °F33.8 °F70 %30.36 in20.0 miWSW (250°)4.6 mphMostly Cloudy
4:00 PM43.0 °F35.0 °F66 %30.35 in19.0 miWSW (250°)4.6 mphScattered Clouds
4:00 PM42.8 °F35.6 °F76 %30.35 in20.0 miWest (260°)4.6 mphScattered Clouds
5:00 PM41.0 °F35.6 °F81 %30.35 in15.0 miWest (280°)4.6 mphScattered Clouds
6:00 PM39.2 °F33.8 °F81 %30.35 in12.0 miNW (310°)3.5 mphScattered Clouds
7:00 PM41.0 °F35.6 °F81 %30.35 in12.0 miCalmMostly Cloudy
8:00 PM39.2 °F35.6 °F87 %30.35 in12.0 miCalmMostly Cloudy
9:00 PM41.0 °F35.6 °F81 %30.35 in10.0 miCalmMostly Cloudy
9:36 PM41.0 °F0.0 °F10.0 miNorth (360°)2.3 mphLight Drizzle
9:48 PM41.0 °F0.0 °F10.0 miCalmMostly Cloudy
10:00 PM41.0 °F36.0 °F76 %30.34 in10.0 miCalmRainLight Drizzle
10:00 PM41.0 °F35.6 °F81 %30.34 in10.0 miCalmOvercast
10:09 PM41.0 °F0.0 °F8.0 miCalmLight Drizzle
11:00 PM41.0 °F37.4 °F87 %30.33 in8.0 miSouth (190°)2.3 mphLight Drizzle
11:08 PM41.0 °F0.0 °F10.0 miSouth (180°)2.3 mphOvercast
11:47 PM41.0 °F0.0 °F10.0 miCalmOvercast
Hourly data recorded from CYVR, located miles away from Richmond Nature Park, British Columbia







STORIES FROM OUR PARTNERS